{"data":{"norad_id":56531,"intl_designator":"2023-065AE","name":"STARLINK-6280","alt_names":[],"object_type":"PAYLOAD","status":"ACTIVE","operator":null,"country":"US","launch_date":"2023-05-14","launch_site_code":"AFETR","launch_vehicle":null,"mission":null,"orbit_class":"UNKNOWN","rcs_meters":null,"size_class":null,"mass_kg":null,"dimensions":null,"purposes":["comms"],"wikipedia_slug":null,"has_3d_model":false,"image_url":null,"decayed_at":null,"tle_current":{"epoch":"2026-05-24T23:59:53.477664Z","epoch_age_seconds":71099,"freshness":"FRESH","line1":"1 56531U 23065AE  26144.99992451  .00000616  00000+0  31914-4 0  9995","line2":"2 56531  43.0055 127.3731 0001311 277.5032  82.5671 15.27578070168438","mean_motion":15.2757807,"eccentricity":0.0001311,"inclination_deg":43.0055,"raan_deg":127.3731,"arg_perigee_deg":277.5032,"mean_anomaly_deg":82.5671,"bstar":3.1914e-5,"rev_number":16843,"period_min":94.266867813833,"perigee_km":482.15537290522,"apogee_km":483.95437741489,"semimajor_km":6861.1918751601,"source":"CELESTRAK","updated_at":"2026-05-25T13:38:18.112113Z"}}}